Coatesville, PA

6:49 AM EDT on April 24, 2018 (GMT -0400)
Chester County Carlson

Weather History for KMQS - December, 2012

Change the Weather History Date:

Tuesday, December 25, 2012

  Actual Average (KILG) Record (KILG)
Temperature  
Mean Temperature 36 °F -  
Max Temperature 39 °F 40 °F 70 °F (1982)
Min Temperature 32 °F 24 °F -7 °F (1983)
Degree Days  
Heating Degree Days 30    
Moisture  
Dew Point 32 °F    
Average Humidity 89    
Maximum Humidity 100    
Minimum Humidity 70    
Precipitation  
Precipitation 0.00 in - - ()
Sea Level Pressure  
Sea Level Pressure 30.08 in    
Wind  
Wind Speed 5 mph (NNW)    
Max Wind Speed 14 mph    
Max Gust Speed 17 mph    
Visibility 6 miles    
Events Fog    
Averages and records for this station are not official NWS values.
T = Trace of Precipitation, MM = Missing Value Source: NWS Daily Summary

Daily Weather History Graph

Daily Weather History Graph

Search for Another Location

Airport or City:

Astronomy

Dec. 25, 2012 Rise Set
Actual Time 7:23 AM EST 4:44 PM EST
Civil Twilight 6:53 AM EST 5:14 PM EST
Nautical Twilight 6:19 AM EST 5:48 PM EST
Astronomical Twilight 5:46 AM EST 6:21 PM EST
Moon 2:50 PM EST (12/25) 4:54 AM EST (12/25)
Length of Visible Light 10h 21m
Length of Day
9h 20m
Waxing Gibbous, 93% of the Moon is Illuminated
Dec 25
Waxing Gibbous
Dec 28
Full
Jan 4
Last Quarter
Jan 11
New
Jan 18
First Quarter

Hourly Weather History & Observations

Time (EST) Temp. Windchill Dew Point Humidity Pressure Visibility Wind Dir Wind Speed Gust Speed Precip Events Conditions
12:15 AM 33.8 °F - 33.8 °F 100% 29.90 in 0.5 mi Calm Calm - N/A Fog Fog
12:35 AM 33.8 °F - 33.8 °F 100% 29.90 in 0.5 mi Calm Calm - N/A Fog Fog
12:55 AM 33.8 °F - 33.8 °F 100% 29.89 in 0.5 mi Calm Calm - N/A Fog Fog
1:15 AM 33.8 °F - 33.8 °F 100% 29.89 in 0.5 mi Calm Calm - N/A Fog Fog
1:35 AM 33.8 °F - 33.8 °F 100% 29.90 in 0.5 mi Calm Calm - N/A Fog Fog
1:55 AM 33.8 °F - 33.8 °F 100% 29.90 in 0.5 mi Calm Calm - N/A Fog Fog
2:15 AM 33.8 °F - 33.8 °F 100% 29.91 in 0.8 mi Calm Calm - N/A   Overcast
2:35 AM 33.8 °F 30.8 °F 33.8 °F 100% 29.92 in 0.5 mi NW 3.5 mph - N/A Fog Fog
2:55 AM 33.8 °F 30.8 °F 33.8 °F 100% 29.93 in 0.5 mi West 3.5 mph - N/A   Overcast
3:15 AM 33.8 °F 30.8 °F 33.8 °F 100% 29.93 in 0.2 mi West 3.5 mph - N/A   Overcast
3:35 AM 33.8 °F 30.8 °F 33.8 °F 100% 29.93 in 0.2 mi West 3.5 mph - N/A   Overcast
3:55 AM 33.8 °F 29.6 °F 33.8 °F 100% 29.94 in 0.2 mi NNW 4.6 mph - N/A   Overcast
4:15 AM 33.8 °F 27.7 °F 33.8 °F 100% 29.94 in 0.5 mi NW 6.9 mph - N/A Fog Fog
4:35 AM 33.8 °F 27.0 °F 33.8 °F 100% 29.95 in 0.8 mi NW 8.1 mph - N/A   Overcast
4:55 AM 33.8 °F 26.4 °F 33.8 °F 100% 29.96 in 2.0 mi NW 9.2 mph - N/A   Overcast
5:15 AM 33.8 °F 25.8 °F 33.8 °F 100% 29.96 in 2.5 mi NW 10.4 mph - N/A   Overcast
5:35 AM 33.8 °F 25.8 °F 33.8 °F 100% 29.98 in 2.5 mi NW 10.4 mph - N/A   Overcast
5:55 AM 33.8 °F 24.8 °F 33.8 °F 100% 29.99 in 3.0 mi NW 12.7 mph - N/A   Overcast
6:15 AM 33.8 °F 24.8 °F 33.8 °F 100% 29.99 in 4.0 mi NW 12.7 mph - N/A   Overcast
6:35 AM 33.8 °F 25.3 °F 33.8 °F 100% 30.00 in 4.0 mi NW 11.5 mph - N/A   Overcast
6:55 AM 33.8 °F 27.0 °F 33.8 °F 100% 30.02 in 4.0 mi NW 8.1 mph - N/A   Overcast
7:15 AM 33.8 °F 28.6 °F 32.0 °F 93% 30.03 in 3.0 mi NW 5.8 mph - N/A   Overcast
7:35 AM 33.8 °F 27.7 °F 33.8 °F 100% 30.03 in 2.0 mi West 6.9 mph - N/A   Overcast
7:55 AM 33.8 °F 27.0 °F 32.0 °F 93% 30.04 in 1.5 mi WNW 8.1 mph - N/A   Overcast
8:15 AM 33.8 °F 25.3 °F 33.8 °F 100% 30.05 in 2.0 mi NW 11.5 mph - N/A   Overcast
8:35 AM 33.8 °F 26.4 °F 32.0 °F 93% 30.07 in 3.0 mi NW 9.2 mph - N/A   Overcast
8:55 AM 33.8 °F 26.4 °F 32.0 °F 93% 30.08 in 3.0 mi WNW 9.2 mph - N/A   Overcast
9:15 AM 33.8 °F 26.4 °F 33.8 °F 100% 30.08 in 4.0 mi NW 9.2 mph - N/A   Overcast
9:35 AM 35.6 °F 28.6 °F 33.8 °F 93% 30.10 in 4.0 mi NW 9.2 mph - N/A   Overcast
9:55 AM 35.6 °F 27.5 °F 33.8 °F 93% 30.11 in 4.0 mi WNW 11.5 mph - N/A   Overcast
10:15 AM 35.6 °F 27.5 °F 33.8 °F 93% 30.11 in 5.0 mi NW 11.5 mph - N/A   Overcast
10:35 AM 35.6 °F 27.1 °F 33.8 °F 93% 30.12 in 5.0 mi NW 12.7 mph - N/A   Overcast
10:55 AM 35.6 °F 27.5 °F 32.0 °F 87% 30.12 in 5.0 mi NNW 11.5 mph - N/A   Overcast
11:15 AM 35.6 °F 26.6 °F 33.8 °F 93% 30.10 in 5.0 mi NW 13.8 mph - N/A   Overcast
11:35 AM 37.4 °F 30.3 °F 33.8 °F 87% 30.09 in 6.0 mi NW 10.4 mph 17.3 mph N/A   Haze
11:55 AM 37.4 °F 30.3 °F 33.8 °F 87% 30.09 in 7.0 mi NNW 10.4 mph - N/A   Partly Cloudy
12:15 PM 39.2 °F 32.0 °F 33.8 °F 81% 30.11 in 7.0 mi NNW 11.5 mph 17.3 mph N/A   Mostly Cloudy
12:35 PM 39.2 °F 33.0 °F 33.8 °F 81% 30.12 in 8.0 mi NW 9.2 mph - N/A   Overcast
12:55 PM 39.2 °F 33.0 °F 33.8 °F 81% 30.12 in 8.0 mi NNW 9.2 mph - N/A   Overcast
1:15 PM 39.2 °F 33.0 °F 33.8 °F 81% 30.11 in 7.0 mi NNW 9.2 mph - N/A   Overcast
1:35 PM 39.2 °F 32.0 °F 33.8 °F 81% 30.11 in 7.0 mi North 11.5 mph - N/A   Overcast
1:55 PM 39.2 °F 32.5 °F 32.0 °F 75% 30.11 in 9.0 mi NNW 10.4 mph 17.3 mph N/A   Mostly Cloudy
2:15 PM 39.2 °F 33.6 °F 33.8 °F 81% 30.11 in 8.0 mi NNW 8.1 mph - N/A   Partly Cloudy
2:35 PM 39.2 °F 34.2 °F 32.0 °F 75% 30.11 in 9.0 mi North 6.9 mph - N/A   Clear
2:55 PM 39.2 °F 33.0 °F 32.0 °F 75% 30.11 in 9.0 mi North 9.2 mph - N/A   Mostly Cloudy
3:15 PM 39.2 °F 37.0 °F 32.0 °F 75% 30.12 in 10.0 mi NNW 3.5 mph - N/A   Partly Cloudy
3:35 PM 39.2 °F 35.0 °F 32.0 °F 75% 30.13 in 10.0 mi North 5.8 mph - N/A   Clear
3:55 PM 39.2 °F 35.0 °F 32.0 °F 75% 30.13 in 10.0 mi North 5.8 mph - N/A   Clear
4:15 PM 37.4 °F 31.4 °F 32.0 °F 81% 30.13 in 10.0 mi North 8.1 mph - N/A   Partly Cloudy
4:35 PM 39.2 °F 35.0 °F 30.2 °F 70% 30.15 in 10.0 mi North 5.8 mph - N/A   Mostly Cloudy
4:55 PM 39.2 °F 33.0 °F 30.2 °F 70% 30.16 in 10.0 mi North 9.2 mph - N/A   Overcast
5:15 PM 37.4 °F 30.3 °F 30.2 °F 75% 30.17 in 10.0 mi North 10.4 mph - N/A   Overcast
5:35 PM 37.4 °F 31.4 °F 30.2 °F 75% 30.18 in 10.0 mi North 8.1 mph - N/A   Overcast
6:35 PM 35.6 °F 30.7 °F 30.2 °F 81% 30.19 in 10.0 mi North 5.8 mph - N/A   Clear
6:55 PM 35.6 °F 30.7 °F 30.2 °F 81% 30.20 in 10.0 mi North 5.8 mph - N/A   Clear
7:35 PM 33.8 °F 27.7 °F 28.4 °F 81% 30.21 in 10.0 mi NNE 6.9 mph - N/A   Clear
7:55 PM 33.8 °F 29.6 °F 28.4 °F 81% 30.22 in 10.0 mi NNE 4.6 mph - N/A   Clear
8:15 PM 33.8 °F 28.6 °F 28.4 °F 81% 30.22 in 10.0 mi NNE 5.8 mph - N/A   Clear
8:35 PM 32.0 °F 27.5 °F 28.4 °F 87% 30.23 in 10.0 mi NNE 4.6 mph - N/A   Partly Cloudy
8:55 PM 32.0 °F 28.7 °F 28.4 °F 87% 30.23 in 10.0 mi NNE 3.5 mph - N/A   Mostly Cloudy
9:15 PM 32.0 °F 27.5 °F 28.4 °F 87% 30.23 in 10.0 mi North 4.6 mph - N/A   Overcast
9:35 PM 33.8 °F 27.7 °F 26.6 °F 75% 30.24 in 10.0 mi North 6.9 mph - N/A   Overcast
9:55 PM 32.0 °F 25.6 °F 26.6 °F 80% 30.25 in 10.0 mi NNE 6.9 mph - N/A   Overcast
10:15 PM 32.0 °F 24.8 °F 26.6 °F 80% 30.25 in 10.0 mi NNE 8.1 mph - N/A   Overcast
11:15 PM 32.0 °F 26.4 °F 26.6 °F 80% 30.25 in 10.0 mi North 5.8 mph - N/A   Overcast
11:35 PM 32.0 °F - 26.6 °F 80% 30.25 in 10.0 mi Calm Calm - N/A   Overcast
11:55 PM 32.0 °F 27.5 °F 24.8 °F 75% 30.25 in 10.0 mi NNE 4.6 mph - N/A   Overcast